Weather History for Thedford, NE

Change the Weather History Date:

Monday, July 1, 2013

  Actual Average (KLBF) Record (KLBF)
Temperature  
Mean Temperature 64 °F 73 °F  
Max Temperature 79 °F 87 °F 106 °F (1953)
Min Temperature 50 °F 58 °F 43 °F (1959)
Degree Days  
Heating Degree Days 1 0  
Month to date heating degree days 0  
Since 1 June heating degree days 51  
Since 1 July heating degree days 0  
Cooling Degree Days 0 8  
Month to date cooling degree days 8  
Year to date cooling degree days 174  
Since 1 June cooling degree days 146  
Growing Degree Days 14 (Base 50)    
Moisture  
Dew Point 47 °F    
Average Humidity 57    
Maximum Humidity 91    
Minimum Humidity 27    
Precipitation  
Precipitation 0.00 in 0.09 in 1.10 in (1979)
Month to date precipitation 0.09  
Year to date precipitation 10.95  
Snow  
Snow 0.00 in 0.00 in 0.00 in (2002)
Month to date snowfall 0.0  
Since 1 June snowfall 0.0  
Since 1 July snowfall 0.0  
Snow Depth -    
Sea Level Pressure  
Sea Level Pressure 30.27 in    
Wind  
Wind Speed 2 mph (ESE)    
Max Wind Speed 10 mph    
Max Gust Speed -    
Visibility 10 miles    
Events      
T = Trace of Precipitation, MM = Missing Value Source: NWS Daily Summary

Daily Weather History Graph

Daily Weather History Graph

Search for Another Location

Airport:

Trip Planner

Search our weather history database for the weather conditions in past years. The results will help you decide how hot, cold, wet, or windy it might be!

Date:

Astronomy

Jul. 01, 2013 Rise Set
Actual Time 6:10 AM CDT 9:21 PM CDT
Civil Twilight 5:36 AM CDT 9:55 PM CDT
Nautical Twilight 4:52 AM CDT 10:39 PM CDT
Astronomical Twilight 3:59 AM CDT 11:32 PM CDT
Moon 1:45 AM CDT (7/1) 3:35 PM CDT (7/1)
Length of Visible Light 16h 19m
Length of Day
15h 10m
Waning Crescent, 35% of the Moon is Illuminated
Jul 1
Waning Crescent
Jul 8
New
Jul 15
First Quarter
Jul 22
Full
Jul 29
Last Quarter

Hourly Weather History & Observations

Time (CDT) Temp. Dew Point Humidity Pressure Visibility Wind Dir Wind Speed Gust Speed Precip Events Conditions
12:15 AM 62.2 °F 53.2 °F 72% 30.23 in 10.0 mi Calm Calm - N/A   Scattered Clouds
12:35 AM 60.8 °F 52.7 °F 75% 30.23 in - ESE 3.5 mph - N/A   Clear
12:55 AM 60.1 °F 52.3 °F 76% 30.24 in 10.0 mi SE 3.5 mph - N/A   Clear
1:15 AM 59.2 °F 52.0 °F 77% 30.25 in 10.0 mi Calm Calm - N/A   Clear
1:35 AM 57.4 °F 51.6 °F 81% 30.25 in - Calm Calm - N/A   Clear
1:55 AM 57.0 °F 52.3 °F 84% 30.26 in 10.0 mi Calm Calm - N/A   Clear
2:15 AM 58.1 °F 52.0 °F 80% 30.26 in 10.0 mi Calm Calm - N/A   Clear
2:35 AM 56.8 °F 52.2 °F 84% 30.26 in 10.0 mi Calm Calm - N/A   Scattered Clouds
2:55 AM 56.3 °F 50.5 °F 81% 30.26 in 10.0 mi Calm Calm - N/A   Mostly Cloudy
3:15 AM 55.0 °F 50.2 °F 84% 30.26 in 10.0 mi Calm Calm - N/A   Scattered Clouds
3:35 AM 54.9 °F 50.0 °F 84% 30.26 in 10.0 mi Calm Calm - N/A   Clear
3:55 AM 54.1 °F 50.4 °F 87% 30.26 in 10.0 mi Calm Calm - N/A   Clear
4:15 AM 52.5 °F 48.7 °F 87% 30.26 in 10.0 mi Calm Calm - N/A   Clear
4:35 AM 52.9 °F 49.5 °F 88% 30.27 in 10.0 mi Calm Calm - N/A   Clear
4:55 AM 52.7 °F 49.6 °F 89% 30.27 in 7.0 mi Calm Calm - N/A   Clear
5:15 AM 52.7 °F 49.6 °F 89% 30.27 in 10.0 mi Calm Calm - N/A   Clear
5:35 AM 51.3 °F 48.0 °F 89% 30.27 in 10.0 mi Calm Calm - N/A   Clear
5:55 AM 52.0 °F 49.1 °F 90% 30.28 in 10.0 mi Calm Calm - N/A   Clear
6:15 AM 50.9 °F 47.8 °F 89% 30.28 in 10.0 mi Calm Calm - N/A   Clear
6:35 AM 51.1 °F 48.2 °F 90% 30.28 in 10.0 mi Calm Calm - N/A   Clear
6:55 AM 51.3 °F 48.6 °F 90% 30.29 in 7.0 mi Calm Calm - N/A   Clear
7:15 AM 52.7 °F 50.0 °F 91% 30.30 in 7.0 mi Calm Calm - N/A   Clear
7:35 AM 53.8 °F 50.9 °F 90% 30.30 in 7.0 mi Calm Calm - N/A   Clear
7:55 AM 55.4 °F 52.0 °F 88% 30.30 in 7.0 mi Calm Calm - N/A   Clear
8:15 AM 58.1 °F 52.9 °F 83% 30.31 in 10.0 mi Calm Calm - N/A   Clear
8:35 AM 61.2 °F 53.1 °F 75% 30.31 in 10.0 mi Calm Calm - N/A   Clear
8:55 AM 64.0 °F 51.6 °F 64% 30.32 in 10.0 mi Calm Calm - N/A   Clear
9:15 AM 65.5 °F 50.4 °F 58% 30.32 in 10.0 mi Calm Calm - N/A   Clear
9:35 AM 66.7 °F 49.3 °F 53% 30.32 in 10.0 mi Calm Calm - N/A   Clear
9:55 AM 67.6 °F 49.5 °F 52% 30.32 in 10.0 mi East 3.5 mph - N/A   Clear
10:15 AM 68.4 °F 48.4 °F 49% 30.31 in 10.0 mi Calm Calm - N/A   Clear
10:35 AM 70.0 °F 48.0 °F 46% 30.31 in 10.0 mi SE 4.6 mph - N/A   Clear
10:55 AM 70.5 °F 47.5 °F 44% 30.31 in 10.0 mi ESE 4.6 mph - N/A   Clear
11:15 AM 70.5 °F 47.3 °F 44% 30.31 in 10.0 mi ESE 6.9 mph - N/A   Clear
11:35 AM 71.8 °F 47.7 °F 42% 30.31 in 10.0 mi SSE 6.9 mph - N/A   Clear
11:55 AM 72.7 °F 45.0 °F 37% 30.31 in 10.0 mi South 3.5 mph - N/A   Clear
12:15 PM 73.4 °F 44.8 °F 36% 30.30 in 10.0 mi ESE 5.8 mph - N/A   Clear
12:35 PM 73.4 °F 42.4 °F 33% 30.30 in 10.0 mi Calm Calm - N/A   Clear
12:55 PM 73.4 °F 45.5 °F 37% 30.30 in 10.0 mi Calm Calm - N/A   Clear
1:15 PM 75.0 °F 46.6 °F 36% 30.29 in 10.0 mi South 3.5 mph - N/A   Clear
1:35 PM 75.0 °F 44.6 °F 34% 30.28 in 10.0 mi Calm Calm - N/A   Scattered Clouds
1:55 PM 77.0 °F 45.7 °F 33% 30.28 in 10.0 mi East 8.1 mph - N/A   Clear
2:15 PM 76.8 °F 45.7 °F 33% 30.28 in 10.0 mi ESE 9.2 mph - N/A   Clear
2:35 PM 77.4 °F 45.5 °F 32% 30.28 in 10.0 mi ESE 6.9 mph - N/A   Clear
2:55 PM 77.9 °F 45.7 °F 32% 30.28 in 10.0 mi East 4.6 mph - N/A   Clear
3:15 PM 76.8 °F 45.0 °F 32% 30.27 in 10.0 mi East 8.1 mph - N/A   Clear
3:35 PM 77.5 °F 44.6 °F 31% 30.27 in 10.0 mi ENE 5.8 mph - N/A   Clear
3:55 PM 77.4 °F 43.5 °F 30% 30.27 in 10.0 mi ENE 9.2 mph - N/A   Clear
4:15 PM 77.2 °F 42.6 °F 29% 30.27 in 10.0 mi East 5.8 mph - N/A   Clear
4:35 PM 76.6 °F 42.6 °F 30% 30.26 in 10.0 mi ENE 6.9 mph - N/A   Clear
4:55 PM 78.6 °F 41.5 °F 27% 30.26 in 10.0 mi SE 3.5 mph - N/A   Clear
5:15 PM 78.1 °F 42.3 °F 28% 30.26 in 10.0 mi East 10.4 mph - N/A   Clear
5:35 PM 76.8 °F 43.0 °F 30% 30.26 in 10.0 mi East 5.8 mph - N/A   Clear
5:55 PM 77.7 °F 42.4 °F 28% 30.26 in 10.0 mi SE 6.9 mph - N/A   Clear
6:15 PM 77.9 °F 42.6 °F 28% 30.26 in 10.0 mi ENE 5.8 mph - N/A   Clear
6:35 PM 76.1 °F 42.4 °F 30% 30.25 in 10.0 mi East 6.9 mph - N/A   Clear
6:55 PM 75.4 °F 41.7 °F 30% 30.25 in 10.0 mi East 4.6 mph - N/A   Clear
7:15 PM 74.5 °F 43.3 °F 33% 30.25 in 10.0 mi East 8.1 mph - N/A   Clear
7:35 PM 74.1 °F 43.5 °F 33% 30.25 in 10.0 mi East 5.8 mph - N/A   Clear
7:55 PM 74.3 °F 42.8 °F 32% 30.25 in 10.0 mi East 6.9 mph - N/A   Clear
8:15 PM 73.4 °F 43.0 °F 34% 30.26 in 10.0 mi East 5.8 mph - N/A   Clear
8:35 PM 71.1 °F 45.3 °F 40% 30.25 in 10.0 mi ESE 5.8 mph - N/A   Clear
8:55 PM 70.0 °F 45.1 °F 41% 30.25 in 10.0 mi SE 3.5 mph - N/A   Clear
9:15 PM 67.1 °F 46.6 °F 48% 30.25 in 10.0 mi Calm Calm - N/A   Clear
9:35 PM 66.2 °F 46.4 °F 49% 30.25 in 10.0 mi Calm Calm - N/A   Clear
9:55 PM 64.4 °F 46.8 °F 53% 30.26 in 10.0 mi Calm Calm - N/A   Clear
10:15 PM 63.3 °F 47.7 °F 57% 30.26 in 10.0 mi Calm Calm - N/A   Clear
10:35 PM 61.9 °F 47.7 °F 60% 30.26 in 10.0 mi Calm Calm - N/A   Clear
10:55 PM 62.1 °F 47.7 °F 59% 30.27 in 10.0 mi Calm Calm - N/A   Clear
11:15 PM 61.2 °F 47.8 °F 62% 30.26 in 10.0 mi Calm Calm - N/A   Clear
11:35 PM 60.1 °F 47.5 °F 63% 30.27 in 10.0 mi Calm Calm - N/A   Clear
11:55 PM 59.2 °F 47.5 °F 65% 30.27 in 10.0 mi Calm Calm - N/A   Clear